Miscellaneous Local Product
Issued by NWS Hastings, NE

Home | Current Version | Previous Version | Text Only | Print | Product List | Glossary Off
Versions: 1 2 3 4 5 6 7 8 9 10 11 12 13 14 15 16 17 18 19 20 21 22 23 24 25 26 27 28 29 30 31 32 33 34 35 36 37 38 39 40 41 42 43 44 45 46 47 48 49 50

530
AXUS43 KGID 142202
MISGRI

GID CWA HOURLY WEATHER ROUNDUP
NATIONAL WEATHER SERVICE HASTINGS NE
400 PM CST SUN FEB 14 2016

NOTE: "FAIR" INDICATES FEW OR NO CLOUDS BELOW 12,000 FEET WITH NO
SIGNIFICANT WEATHER AND/OR OBSTRUCTIONS TO VISIBILITY.

...SOUTH CENTRAL NEBRASKA...

CITY           SKY/WX    TMP DP  RH WIND       PRES   REMARKS
GRAND ISLAND   CLOUDY    44  30  57 SW10      29.83S
HASTINGS       PTSUNNY   42  31  64 W8        29.83S
KEARNEY        MOSUNNY   48  30  49 SW13G18   29.83F
ORD            CLOUDY    48  29  47 NW7       29.79R
YORK           CLOUDY    45  36  70 W5        29.84S
AURORA         CLOUDY    43  32  64 W5        29.82F
LEXINGTON      SUNNY     51  29  42 W7        29.83S
HOLDREGE       MOSUNNY   47  30  51 SW8       29.84S
HEBRON         MOSUNNY   46  33  60 W7        29.86R

...NEBRASKA PANHANDLE...

CITY           SKY/WX    TMP DP  RH WIND       PRES   REMARKS
CHADRON        PTSUNNY   51  25  36 NW20G28   29.80S
ALLIANCE       SUNNY     48  23  37 NW20      29.80R
SCOTTSBLUFF    LGT RAIN  48  30  49 NW14G24   29.81R
SIDNEY         CLOUDY    48  28  46 NW21G30   29.81F

...WESTERN AND NORTH CENTRAL NEBRASKA...

CITY           SKY/WX    TMP DP  RH WIND       PRES   REMARKS
VALENTINE      CLOUDY    47  25  42 NW12      29.78R
AINSWORTH      PTSUNNY   48  27  44 W15       29.77S
ONEILL         CLOUDY    44  34  68 W3        29.79R
BROKEN BOW     CLOUDY    50  26  39 W13       29.79S
IMPERIAL       CLOUDY    47  25  42 SW12      29.82F
NORTH PLATTE   SUNNY     48  28  46 W12       29.82S
MCCOOK         CLOUDY    45  29  53 SW8       29.84F

...EASTERN NEBRASKA...

CITY           SKY/WX    TMP DP  RH WIND       PRES   REMARKS
NORFOLK        CLOUDY    38  31  76 NW6       29.81R WCI  33
SO SIOUX CITY  CLOUDY    29  20  69 CALM      29.86R
TEKAMAH        CLOUDY    32  26  78 NW9       29.86R WCI  24
COLUMBUS       MOSUNNY   39  28  65 CALM      29.84S
ALBION         MOSUNNY   41  32  70 N5        29.81S
OMAHA EPPLEY   CLOUDY    36  28  73 W16       29.85R WCI  26
OFFUTT AFB     CLOUDY    38  30  71 W13       29.84R WCI  30
MILLARD        CLOUDY    37  30  75 W9        29.85R WCI  30
LINCOLN        CLOUDY    42  33  70 N3        29.87R
NEBRASKA CITY  CLOUDY    40  30  67 NW9       29.86R WCI  34
BEATRICE       CLOUDY    45  32  61 W10       29.85S
FALLS CITY     MOSUNNY   48  32  53 N9        29.84R

...NORTHERN KANSAS...

CITY           SKY/WX    TMP DP  RH WIND       PRES   REMARKS
GOODLAND       CLOUDY    47  27  45 SW13      29.87S
HILL CITY      CLOUDY    51  26  37 SW10      29.87F
NORTON         CLEAR     43  28  56 SW7       29.85
PHILLIPSBURG   SUNNY     50  28  43 CALM      29.87S
SMITH CENTER   SUNNY     48  30  49 W13       29.86S
BELOIT         SUNNY     54  27  35 NW8       29.86S
HAYS           CLOUDY    54  23  30 SW8       29.88S
RUSSELL        SUNNY     54  23  30 W7        29.86R
CONCORDIA      CLOUDY    51  26  37 W10       29.85S
SALINA         SUNNY     58  23  26 NW10      29.87S
TOPEKA         SUNNY     51  28  41 W6        29.85S



USA.gov is the U.S. government's official web portal to all federal, state and local government web resources and services.